Location: N�rnberg
(49.4489°N, 11.0797°E)
Time: 01:07:37
(UTC+01:00)

ISS - Pass Details

Date: 13 November 2017
Orbit: 402 x 407 km, 51.6° (Epoch: 20 November)

Event Time Altitude Azimuth Distance (km) Brightness Sun altitude
Exits shadow 06:35:23 11° 276° (W) 1,428 -1.7 -8.0°
Maximum altitude 06:38:13 30° 214° (SW) 748 -2.6 -7.6°
Drops below altitude 10° 06:41:07 10° 151° (SSE) 1,450 -0.2 -7.2°
Sets 06:43:19 0° 140° (SE) 2,306 1.2 -6.8°
